DLH5C EDDK-EDDS

Flight info

Callsign DLH5C
Flight time N/A
Altitude 23000
Route KUMIK1B KUMIK L603 BOMBI N850 KRH T128 BADSO BADSO2A
Aircraft A320/M-SDE3FGHIRWY/LB1

Departure

Time 2026-05-04 19:58
Airport Cologne Bonn Airport (EDDK)

Arrival

Time N/A
Airport Stuttgart Airport (EDDS)
Time Latitude Longitude Altitude Speed Heading
2026-05-04 19:35 50.88126 7.12043 232 ft 0 kts 216°
2026-05-04 19:45 50.88132 7.12050 233 ft 3 kts 216°
2026-05-04 19:45 50.88158 7.12078 231 ft 2 kts 191°
2026-05-04 19:46 50.88173 7.12082 232 ft 1 kts 153°
2026-05-04 19:46 50.88184 7.12064 234 ft 8 kts 119°
2026-05-04 19:46 50.88154 7.12147 232 ft 0 kts 124°
2026-05-04 19:49 50.88130 7.12202 230 ft 12 kts 124°
2026-05-04 19:49 50.88092 7.12334 230 ft 14 kts 115°
2026-05-04 19:50 50.88004 7.12487 230 ft 22 kts 136°
2026-05-04 19:50 50.87874 7.12599 230 ft 22 kts 172°
2026-05-04 19:50 50.87750 7.12725 230 ft 21 kts 141°
2026-05-04 19:50 50.87637 7.12884 230 ft 22 kts 136°
2026-05-04 19:51 50.87525 7.13052 232 ft 22 kts 137°
2026-05-04 19:51 50.87409 7.13220 233 ft 24 kts 137°
2026-05-04 19:51 50.87281 7.13411 237 ft 26 kts 137°
2026-05-04 19:51 50.87140 7.13611 239 ft 28 kts 138°
2026-05-04 19:52 50.86991 7.13827 243 ft 30 kts 137°
2026-05-04 19:52 50.86842 7.14038 246 ft 28 kts 139°
2026-05-04 19:52 50.86710 7.14179 254 ft 20 kts 146°
2026-05-04 19:52 50.86606 7.14323 258 ft 23 kts 139°
2026-05-04 19:53 50.86483 7.14499 259 ft 24 kts 137°
2026-05-04 19:53 50.86366 7.14669 265 ft 24 kts 137°
2026-05-04 19:53 50.86238 7.14856 270 ft 25 kts 137°
2026-05-04 19:53 50.86110 7.15047 274 ft 26 kts 136°
2026-05-04 19:54 50.85969 7.15248 280 ft 28 kts 139°
2026-05-04 19:54 50.85826 7.15449 288 ft 26 kts 138°
2026-05-04 19:54 50.85701 7.15632 297 ft 24 kts 137°
2026-05-04 19:54 50.85582 7.15803 300 ft 23 kts 138°
2026-05-04 19:55 50.85466 7.15971 303 ft 22 kts 137°
2026-05-04 19:55 50.85360 7.16139 304 ft 21 kts 119°
2026-05-04 19:55 50.85341 7.16342 311 ft 18 kts 76°
2026-05-04 19:55 50.85376 7.16438 311 ft 0 kts 49°
2026-05-04 19:56 50.85385 7.16453 312 ft 9 kts 46°
2026-05-04 19:56 50.85498 7.16522 314 ft 20 kts 355°
2026-05-04 19:56 50.85606 7.16443 310 ft 0 kts 314°
2026-05-04 19:57 50.85606 7.16442 310 ft 0 kts 314°
2026-05-04 19:57 50.85607 7.16441 310 ft 0 kts 314°
2026-05-04 19:58 50.85677 7.16337 309 ft 42 kts 319°
2026-05-04 19:58 50.86102 7.15732 290 ft 120 kts 317°
2026-05-04 19:58 50.86879 7.14614 265 ft 178 kts 319°
2026-05-04 19:58 50.87836 7.13277 904 ft 181 kts 319°
2026-05-04 19:59 50.88773 7.11947 1724 ft 183 kts 319°
2026-05-04 19:59 50.89996 7.11166 2046 ft 205 kts 360°
2026-05-04 19:59 50.91400 7.11870 2348 ft 220 kts 26°
2026-05-04 19:59 50.92766 7.13033 2842 ft 226 kts 35°
2026-05-04 20:00 50.93845 7.14871 3437 ft 236 kts 62°
2026-05-04 20:00 50.94602 7.17314 3787 ft 259 kts 66°
2026-05-04 20:00 50.95411 7.19965 4323 ft 273 kts 66°
2026-05-04 20:00 50.96261 7.22692 5070 ft 279 kts 66°
2026-05-04 20:01 50.97136 7.25464 5842 ft 284 kts 66°
2026-05-04 20:01 50.97955 7.28328 6595 ft 286 kts 77°
2026-05-04 20:01 50.98149 7.31427 7305 ft 282 kts 101°
2026-05-04 20:01 50.97680 7.34438 8062 ft 281 kts 111°
2026-05-04 20:02 50.97115 7.37420 8819 ft 284 kts 111°
2026-05-04 20:02 50.96538 7.40432 9554 ft 287 kts 111°
2026-05-04 20:02 50.95954 7.43480 10226 ft 293 kts 111°
2026-05-04 20:02 50.95335 7.46696 10431 ft 316 kts 111°
2026-05-04 20:03 50.94669 7.50152 10579 ft 339 kts 111°
2026-05-04 20:03 50.93686 7.53622 10748 ft 350 kts 127°
2026-05-04 20:03 50.92285 7.56778 11190 ft 358 kts 129°
2026-05-04 20:03 50.90853 7.59982 11728 ft 363 kts 129°
2026-05-04 20:04 50.89366 7.63311 12352 ft 367 kts 128°
2026-05-04 20:04 50.87905 7.66582 12962 ft 370 kts 128°
2026-05-04 20:04 50.86391 7.69970 13587 ft 373 kts 128°
2026-05-04 20:04 50.84884 7.73335 14141 ft 377 kts 128°
2026-05-04 20:05 50.83380 7.76691 14676 ft 380 kts 128°
2026-05-04 20:05 50.81820 7.80166 15226 ft 384 kts 128°
2026-05-04 20:05 50.80268 7.83620 15775 ft 387 kts 128°
2026-05-04 20:05 50.78700 7.87102 16320 ft 391 kts 128°
2026-05-04 20:06 50.77136 7.90570 16840 ft 394 kts 128°
2026-05-04 20:06 50.75520 7.94147 17358 ft 397 kts 128°
2026-05-04 20:06 50.73926 7.97665 17853 ft 400 kts 128°
2026-05-04 20:06 50.72300 8.01254 18327 ft 404 kts 128°
2026-05-04 20:07 50.70661 8.04872 18753 ft 407 kts 128°
2026-05-04 20:07 50.69017 8.08492 19189 ft 409 kts 128°
2026-05-04 20:07 50.67355 8.12146 19626 ft 411 kts 129°
2026-05-04 20:07 50.65683 8.15817 20065 ft 414 kts 129°
2026-05-04 20:08 50.63997 8.19513 20503 ft 416 kts 129°
2026-05-04 20:08 50.62299 8.23224 20935 ft 419 kts 129°
2026-05-04 20:08 50.60594 8.26940 21376 ft 421 kts 129°
2026-05-04 20:08 50.58871 8.30693 21809 ft 424 kts 129°
2026-05-04 20:09 50.57140 8.34461 22242 ft 426 kts 129°
2026-05-04 20:09 50.55400 8.38247 22670 ft 428 kts 129°
2026-05-04 20:09 50.53647 8.42056 22943 ft 430 kts 129°
2026-05-04 20:09 50.51877 8.45892 23001 ft 438 kts 129°
2026-05-04 20:10 50.50070 8.49793 22994 ft 445 kts 129°
2026-05-04 20:10 50.48228 8.53773 22995 ft 456 kts 129°
2026-05-04 20:10 50.46174 8.57602 22995 ft 461 kts 139°
2026-05-04 20:10 50.43703 8.60835 22994 ft 465 kts 149°
2026-05-04 20:11 50.40888 8.63330 22995 ft 465 kts 159°
2026-05-04 20:11 50.37850 8.65028 22994 ft 464 kts 166°
2026-05-04 20:11 50.34771 8.66464 22990 ft 464 kts 166°
2026-05-04 20:11 50.31716 8.67888 22982 ft 464 kts 166°
2026-05-04 20:12 50.28623 8.69330 22995 ft 464 kts 166°